Regional Weather Roundup
Issued by NWS

Home | Current Version | Previous Version | Graphics & Text | Print | Product List | Glossary On
Versions: 1 2 3 4 5 6 7 8 9 10 11 12 13 14 15 16 17 18 19 20 21 22 23 24 25 26 27 28 29 30 31 32 33 34 35 36 37 38 39 40 41 42 43 44 45 46 47 48 49 50
000
ASUS45 KSLC 030110
RWRUT

UTAH REGIONAL WEATHER ROUNDUP
NATIONAL WEATHER SERVICE SALT LAKE CITY UT
700 PM MDT SUN AUG 02 2015

UTZ001>011-023>025-030200-

NORTHERN UTAH

CITY           SKY/WX    TMP DP  RH WIND       PRES   REMARKS
BRIGHAM CITY   PTSUNNY   88  40  18 S17G23    29.94R
HILL AFB       CLOUDY    82  47  29 S18       29.99F
LOGAN          SUNNY     91  43  18 S14       29.91S
OGDEN          CLOUDY    85  47  26 S20       29.96S
PROVO AIRPORT  PTSUNNY   75  54  46 NE3       30.02F
SALT LAKE CITY CLOUDY    82  48  30 S22G31    29.95F
VERNAL         CLOUDY    78  47  33 SW5       30.03F
WENDOVER       CLOUDY    93  28  10 SE10      29.93S
HEBER CITY     CLOUDY    75  41  29 CALM      30.06F
WEST JORDAN    SUNNY     79  48  34 SE14      30.00F

$$

UTZ012>022-026-027-030200-

SOUTHERN/CENTRAL UTAH

CITY           SKY/WX    TMP DP  RH WIND       PRES   REMARKS
BLANDING       CLOUDY    68  61  77 S6        30.21S
BRYCE CANYON   CLOUDY    57  54  89 N6        30.26F
CEDAR CITY     PTSUNNY   82  40  22 VRB3      30.07F
DELTA          CLOUDY    74  46  37 SE10      30.06F
HANKSVILLE     CLOUDY    70  61  73 SW3       30.07F
MILFORD        CLOUDY    79  45  29 E15G23    30.04S
MOAB/CYNLANDS  CLOUDY    72  56  57 NW15      30.04R
PRICE          LGT RAIN  71  57  61 S13       30.12F
ST GEORGE      CLOUDY    95  48  20 W6G17     29.87F HX  91

$$

REGIONAL REPORTS     COLORADO/ARIZONA

CITY           SKY/WX    TMP DP  RH WIND       PRES   REMARKS
CRAIG, CO      CLOUDY    83  45  26 SW12      30.06F
GRAND JUNCTION LGT RAIN  72  60  66 S7        30.06R
RIFLE          TSTM      63  59  87 NE9       30.19R FOG
MONTROSE       LGT RAIN  64  60  87 E3        30.17F
CORTEZ         SUNNY     72  58  61 N3        30.12S
PAGE, AZ       PTSUNNY   80  61  52 N6        30.00F
GRAND CANYON   PTSUNNY   75  55  49 VRB3      30.18S
KINGMAN        SUNNY     96  44  16 W14G23    29.91F HX  92
FLAGSTAFF      CLOUDY    69  52  54 S3        30.22F

$$

REGIONAL REPORTS    NEVADA/IDAHO/WYOMING

CITY           SKY/WX    TMP DP  RH WIND       PRES   REMARKS
LAS VEGAS, NV  MOSUNNY  101  46  15 E3        29.74F HX  97
ELY            LGT RAIN  72  45  37 S9        30.17R
ELKO           CLOUDY    84  42  22 W18G30    29.99R
POCATELLO, ID  SUNNY     92  46  20 NW3       29.93F
BURLEY         PTSUNNY   90  51  26 CALM      29.88F
EVANSTON, WY   CLOUDY    76  39  26 W17G28    30.15F
ROCK SPRINGS   CLOUDY    83  33  16 S15       30.10F
KEMMERER       MOSUNNY  N/A N/A N/A E9        30.15F

$$


USA.gov is the U.S. government's official web portal to all federal, state and local government web resources and services.